Weather Roundup
Issued by NWS Chicago, IL

Home | Current Version | Previous Version | Text Only | Print | Product List | Glossary On
Versions: 1 2 3 4 5 6 7 8 9 10 11 12 13 14 15 16 17 18 19 20 21 22 23 24 25 26 27 28 29 30 31 32 33 34 35 36 37 38 39 40 41 42 43 44 45 46 47 48 49 50
000
NZUS59 KLOT 280509
HRRLOT

CHICAGO AREA WEATHER ROUNDUP
NATIONAL WEATHER SERVICE CHICAGO/ROMEOVILLE IL
1200 AM CDT SUN MAY 28 2017

NOTE: "FAIR" INDICATES FEW OR NO CLOUDS BELOW 12,000 FEET WITH NO
SIGNIFICANT WEATHER AND/OR OBSTRUCTIONS TO VISIBILITY.

* THESE STATIONS ARE NOT UNDER NWS QUALITY CONTROL. THEY ALSO MAY NOT
  REPORT WEATHER SUCH AS PRECIPITATION OR FOG.

ILZ005-006-012>014-019>023-280600-
NORTHEAST ILLINOIS

CITY           SKY/WX    TMP DP  RH WIND       PRES   REMARKS
OHARE          CLOUDY    64  53  67 CALM      29.82F
MIDWAY         CLOUDY    62  53  72 CALM      29.82F
AURORA         CLOUDY    64  56  75 E3        29.83F
LANSING*       CLOUDY    60  56  87 CALM      29.84S
JOLIET*        CLOUDY    64  59  83 CALM      29.83F
WAUKEGAN       CLOUDY    59  51  75 CALM      29.82F
DUPAGE AIRPORT CLOUDY    64  57  78 CALM      29.82F
WHEELING       CLOUDY    61  54  77 E5        29.83F
KANKAKEE*      MOCLDY    63  62  96 CALM      29.83F
MORRIS*        CLOUDY    64  60  86 CALM      29.81F
LEWIS AIRPORT* CLOUDY    60  58  94 E3        29.83S
NORTHERLY ISL    N/A     57  49  74 CALM        N/A
$$

WIZ051-052-058>065-066-070>072-280600-
SOUTHEAST WISCONSIN

CITY           SKY/WX    TMP DP  RH WIND       PRES   REMARKS
MILWAUKEE      CLOUDY    65  54  67 CALM      29.82F
KENOSHA*       CLOUDY    62  52  69 SW3       29.84F
RACINE*        CLOUDY    62  51  67 SE3       29.84F
WAUKESHA       CLOUDY    61  52  72 CALM      29.84F
WEST BEND      CLOUDY    61  55  82 CALM      29.83F
$$

INZ001>003-010>013-019-020-280600-
NORTHWEST INDIANA

CITY           SKY/WX    TMP DP  RH WIND       PRES   REMARKS
GARY*          MOCLDY    58  56  91 CALM      29.83F
MICHIGAN CITY* NOT AVBL
RENSSELAER*    NOT AVBL
VALPARAISO     PTCLDY    61  58  90 NE5       29.83F
$$

LMZ740>746-280600-
SOUTHERN LAKE MICHIGAN

STATION/POSITION TIME  SKY/WX   TEMP WIND        PRES    VSBY
                                AIR  DIR/SP/G
                 (UTC)          (F)  (DEG/KT/KT) (MB)    (MI)
HARRISON CRIB    0440            58  180/  4/  4   N/A
BURNHAM HARBOR   0500            58   CALM  /  2   N/A
CALUMET HARBOR   0442            57   10/  1/  2 1009.6F
BURNS HARBOR     0440            62   90/  4/  5 1010.5F
MICHIGAN CITY    0440            60   40/  4/  5   N/A
$$

ABBREVIATIONS USED IN REMARKS
   TC - TEMPERATURE IN CELSIUS
  WCI - WIND CHILL INDEX
   HX - HEAT INDEX
  VSB - VISIBILITY
$$



USA.gov is the U.S. government's official web portal to all federal, state and local government web resources and services.